CAPE
0 0 3 2 23 20 2 28 72 67 64 75 33 173 225 335 245 266 232 212 168 132
0 0 0 17 2 4 9 29 62 67 72 66 95 111 150 147 192 286 284 255 275 71
0 0 0 11 6 1 0 1 10 36 39 54 48 47 66 105 137 158 309 229 187 178
12 11 8 2 1 0 0 1 2 4 13 20 23 35 124 110 90 107 144 215 168 69
8 9 7 5 2 0 0 0 1 3 3 5 6 64 133 152 53 70 75 3 0 10
5 5 6 3 4 6 5 7 7 8 9 7 24 11 36 85 5 4 10 31 30 3
43 0 3 6 6 8 0 2 1 1 1 3 1 3 16 21 26 91 105 38 30 17
60 48 28 0 0 0 0 0 9 7 1 10 47 82 102 55 36 62 61 33 60 42
29 36 62 51 39 41 50 89 129 109 86 130 68 131 80 133 70 70 37 49 38 10
59 31 21 22 33 55 75 110 104 83 71 75 69 107 122 80 104 89 78 36 22 54
109 99 85 73 79 86 110 98 74 83 81 90 124 109 144 88 60 47 35 6 3 1
114 115 120 118 95 119 83 83 90 175 189 288 84 77 51 64 20 5 0 1 1 0
188 201 181 136 274 217 130 154 144 169 126 108 65 81 51 71 2 2 0 0 0 0
135 177 167 145 156 152 118 92 117 126 124 110 92 47 0 0 0 0 0 0 1 4
CIN
0 0 0 0 0 -2 0 -13 -17 -33 -40 -51 -46 -10 -1 0 -1 0 0 0 -1 -6
0 0 0 0 0 -12 -12 -8 -22 -22 -11 -6 0 0 -2 0 0 0 0 0 0 -7
0 0 0 0 0 0 0 -6 -2 0 0 0 0 0 -1 -2 0 0 -1 0 0 0
0 0 0 0 0 0 0 0 0 0 0 0 0 0 -5 0 0 0 0 0 -2 -15
0 0 0 0 0 0 0 0 0 0 0 0 0 0 0 0 -20 -26 -21 -6 0 -11
0 0 0 0 0 0 0 0 0 0 -34 -74 -35 -39 -13 -9 -66 -3 -2 -26 -15 -12
-43 0 0 0 0 -72 0 0 0 0 0 0 0 0 -43 -31 -20 -10 0 -9 -4 -5
-31 -42 -35 0 0 0 0 -1 -8 -15 0 -36 -24 -4 0 -6 -1 0 -1 -7 -1 -2
-54 -46 -36 -31 -37 -27 -24 -19 -10 -15 -15 -8 -9 -2 -20 -1 -1 0 -2 0 -8 0
-294 -104 -97 -81 -51 -69 -56 -38 -45 -64 -60 -43 -37 -20 -17 -12 0 0 0 -5 -11 -2
-91 -102 -95 -107 -117 -100 -106 -94 -90 -61 -41 -29 -18 -14 -1 -5 -5 -13 -15 -15 0 0
-106 -70 -147 -133 -119 -79 -77 -52 -37 -13 -8 -1 -10 -10 -10 -9 -19 -2 0 -1 0 0
-129 -129 -107 -108 -53 -41 -48 -28 -16 -5 -6 -4 -11 -3 -9 -1 -1 0 0 0 0 0
-202 -130 -89 -64 -22 -13 -11 -18 -9 -4 -2 0 -1 0 0 0 0 0 0 0 0 0
Wind_Speed
nan nan nan nan nan nan nan nan nan nan nan nan nan 9 9 13 17 19 20 19 24 29
nan nan nan nan nan nan nan nan nan nan nan nan nan 6 9 14 13 17 17 19 24 nan
nan nan nan nan nan nan nan nan nan nan nan nan nan nan nan 14 15 17 20 26 26 32
nan nan nan nan nan nan nan nan nan nan nan nan nan nan 15 16 nan 23 23 26 31 nan
nan nan nan nan nan nan nan nan nan nan nan nan nan nan 21 20 nan nan nan nan nan nan
nan nan nan nan nan nan nan nan nan nan nan nan nan nan nan nan nan nan nan nan nan nan
nan nan nan nan nan nan nan nan nan nan nan nan nan nan nan nan nan nan 27 nan nan nan
nan nan nan nan nan nan nan nan nan nan nan nan nan nan 24 nan nan nan nan nan nan nan
nan nan nan nan nan nan nan nan 21 22 nan 24 nan 32 nan 36 nan nan nan nan nan nan
nan nan nan nan nan nan nan 29 29 nan nan nan nan 41 45 nan 53 nan nan nan nan nan
26 nan nan nan nan nan 44 nan nan nan nan nan 51 56 63 nan nan nan nan nan nan nan
30 34 35 37 nan 41 nan nan nan 55 56 55 nan nan nan nan nan nan nan nan nan nan
38 37 37 38 39 41 45 48 49 54 55 60 nan nan nan nan nan nan nan nan nan nan
43 43 44 45 46 49 52 nan 56 59 60 64 nan nan nan nan nan nan nan nan nan nan
Wind_Direction
nan nan nan nan nan nan nan nan nan nan nan nan nan 280 282 279 279 282 279 286 290 283
nan nan nan nan nan nan nan nan nan nan nan nan nan 310 281 272 287 286 290 290 289 nan
nan nan nan nan nan nan nan nan nan nan nan nan nan nan nan 286 293 303 295 293 298 302
nan nan nan nan nan nan nan nan nan nan nan nan nan nan 304 315 nan 310 305 313 305 nan
nan nan nan nan nan nan nan nan nan nan nan nan nan nan 316 304 nan nan nan nan nan nan
nan nan nan nan nan nan nan nan nan nan nan nan nan nan nan nan nan nan nan nan nan nan
nan nan nan nan nan nan nan nan nan nan nan nan nan nan nan nan nan nan 303 nan nan nan
nan nan nan nan nan nan nan nan nan nan nan nan nan nan 300 nan nan nan nan nan nan nan
nan nan nan nan nan nan nan nan 296 298 nan 292 nan 280 nan 288 nan nan nan nan nan nan
nan nan nan nan nan nan nan 282 281 nan nan nan nan 264 273 nan 279 nan nan nan nan nan
281 nan nan nan nan nan 262 nan nan nan nan nan 269 266 272 nan nan nan nan nan nan nan
264 263 262 265 nan 264 nan nan nan 268 270 271 nan nan nan nan nan nan nan nan nan nan
260 263 266 269 270 270 270 271 271 269 269 269 nan nan nan nan nan nan nan nan nan nan
260 264 265 267 268 270 270 nan 270 270 270 270 nan nan nan nan nan nan nan nan nan nan